CW1102 Weather Reports


time (UTC)temp
C
wind
direction
speed
KPH
gust
KPH
rain 1hr
cm
rain 24hr
cm
rain mn
cm
humidity
%
barometer
mb
20210920044609 6 240 0.0 0.0 0.00 0.33 0.23 81 1021.9
20210920043055 7 266 0.0 3.2 0.00 0.33 0.23 80 1021.8
20210920041549 7 121 0.0 1.6 0.00 0.33 0.23 78 1021.5
20210920040030 8 169 0.0 3.2 0.00 0.36 0.23 75 1021.5
20210920034529 8 273 3.2 6.4 0.00 0.36 0.23 76 1021.1
20210920033028 7 212 0.0 0.0 0.00 0.36 0.23 82 1020.9
20210920031528 7 247 0.0 1.6 0.00 0.36 0.23 81 1020.8
20210920030030 8 252 0.0 0.0 0.00 0.36 0.23 76 1020.4
20210920024517 9 259 0.0 0.0 0.00 0.36 0.23 73 1020.3
20210920023014 10 252 0.0 3.2 0.00 0.36 0.23 69 1020.0
20210920021512 10 278 0.0 4.8 0.00 0.36 0.23 69 1019.6
20210920020015 10 283 1.6 4.8 0.00 0.36 0.23 70 1019.6
20210920014508 10 277 0.0 3.2 0.00 0.36 0.23 72 1019.3
20210920013008 11 260 0.0 4.8 0.00 0.36 0.23 70 1019.2
20210920011510 12 268 0.0 1.6 0.00 0.36 0.23 68 1019.0
20210920010006 11 283 0.0 3.2 0.00 0.36 0.23 67 1018.9
20210920004525 12 278 3.2 9.7 0.00 0.36 0.23 64 1018.9
20210920003012 11 283 4.8 9.7 0.00 0.36 0.23 65 1018.9
20210920001502 12 272 3.2 8.0 0.00 0.36 0.23 63 1018.7
20210920000003 12 284 1.6 8.0 0.00 0.36 0.23 64 1018.4
20210919233119 12 247 3.2 6.4 0.00 0.36 0.23 65 1018.1
20210919231626 12 269 3.2 11.3 0.00 0.36 0.23 64 1017.9
20210919230111 12 266 3.2 8.0 0.00 0.36 0.23 67 1017.7
20210919224645 11 264 3.2 9.7 0.00 0.36 0.23 70 1017.7
20210919223128 11 259 4.8 16.1 0.00 0.36 0.23 69 1017.6
20210919221647 12 293 3.2 9.7 0.00 0.36 0.23 61 1017.1
20210919220055 12 255 4.8 11.3 0.00 0.36 0.23 66 1017.1
20210919214746 12 269 3.2 8.0 0.00 0.36 0.23 66 1016.9
20210919213104 13 297 1.6 12.9 0.00 0.36 0.23 62 1016.7
20210919211650 13 275 3.2 11.3 0.00 0.36 0.23 62 1016.5
20210919210111 12 289 3.2 11.3 0.00 0.56 0.23 65 1016.6
20210919204618 12 316 3.2 9.7 0.00 0.56 0.23 63 1016.3
20210919203052 13 249 4.8 11.3 0.00 0.56 0.23 62 1016.0
20210919201614 12 300 3.2 11.3 0.00 0.56 0.23 65 1016.0
20210919200110 12 272 1.6 6.4 0.00 0.79 0.23 67 1016.0
20210919194559 11 283 1.6 4.8 0.00 0.79 0.23 70 1015.9
20210919193032 11 290 0.0 11.3 0.00 0.79 0.23 72 1015.7
20210919191541 10 43 1.6 8.0 0.00 0.79 0.23 76 1015.5
20210919190021 10 267 4.8 9.7 0.00 0.79 0.23 73 1015.3
20210919184518 10 300 3.2 8.0 0.00 0.79 0.23 73 1015.1
20210919183016 10 269 3.2 8.0 0.00 0.79 0.23 72 1015.0
20210919181515 10 274 1.6 9.7 0.00 0.79 0.23 76 1014.8
20210919180010 11 248 0.0 3.2 0.00 0.79 0.23 79 1014.6
20210919174510 10 344 0.0 3.2 0.03 0.79 0.23 83 1014.5
20210919171636 8 113 0.0 0.0 0.08 0.79 0.23 88 1014.1
20210919170214 8 91 0.0 1.6 0.10 0.79 0.23 87 1014.0
20210919164636 8 352 0.0 1.6 0.10 0.76 0.20 90 1013.9
20210919163149 7 345 0.0 3.2 0.08 0.71 0.18 93 1013.6
20210919161651 7 295 0.0 1.6 0.08 0.71 0.15 94 1013.4
20210919160153 7 267 0.0 1.6 0.05 0.69 0.13 94 1013.0
20210919154709 6 259 0.0 1.6 0.03 0.66 0.10 95 1012.7
20210919153130 6 273 0.0 1.6 0.03 0.66 0.10 95 1012.4
20210919151640 6 281 0.0 1.6 0.00 0.64 0.08 94 1012.2
20210919150055 6 281 0.0 3.2 0.00 0.64 0.08 94 1012.1
20210919144618 -17 0.0 0.0 0.00 0.64 0.08 1012.0
20210919143053 -17 0.0 0.0 0.00 0.64 0.08 1011.9
20210919141610 -17 0.0 0.0 0.00 0.64 0.08 1011.8
20210919140047 -17 0.0 0.0 0.00 0.64 0.08 1011.8
20210919134551 -17 0.0 0.0 0.00 0.64 0.08 1011.5
20210919133046 -17 0.0 0.0 0.00 0.64 0.08 1011.3
20210919131515 -17 0.0 0.0 0.00 0.64 0.08 1011.0
20210919130039 -17 0.0 0.0 0.00 0.64 0.08 1010.7
20210919124505 -17 0.0 0.0 0.00 0.64 0.08 1010.8
20210919121910 -17 0.0 0.0 0.00 0.64 0.08 1010.8
20210919120121 -17 0.0 0.0 0.00 0.64 0.08 1010.9
20210919114641 -17 0.0 0.0 0.00 0.64 0.08 1010.8
20210919113117 -17 0.0 0.0 0.00 0.64 0.08 1010.7
20210919110104 6 245 0.0 1.6 0.00 0.64 0.08 91 1010.5
20210919104607 6 282 0.0 1.6 0.00 0.64 0.08 91 1010.4
20210919103108 7 263 0.0 0.0 0.03 0.64 0.08 91 1010.2
20210919101601 7 229 0.0 0.0 0.05 0.64 0.08 89 1010.2
20210919100031 8 296 0.0 3.2 0.05 0.64 0.08 84 1010.0
20210919094552 8 58 0.0 3.2 0.05 0.64 0.08 83 1010.3
20210919093034 9 237 0.0 6.4 0.05 0.61 0.05 80 1010.1
20210919091536 8 289 0.0 3.2 0.03 0.58 0.03 85 1010.1
20210919090058 8 267 0.0 1.6 0.03 0.58 0.03 93 1010.1
20210919084536 7 143 0.0 1.6 0.03 0.58 0.03 93 1010.1
20210919083037 8 84 0.0 1.6 0.00 0.56 0.00 93 1010.1
20210919081528 8 271 0.0 1.6 0.00 0.56 0.00 92 1010.1
20210919080022 8 266 0.0 1.6 0.00 0.56 0.00 92 1010.0
20210919074520 8 278 0.0 1.6 0.00 0.56 0.00 92 1010.0
20210919073017 8 323 0.0 1.6 0.00 0.56 0.00 92 1010.0
20210919071529 8 272 0.0 0.0 0.00 0.56 0.00 92 1010.0
20210919070007 8 250 0.0 0.0 0.00 0.56 0.56 91 1009.9
20210919064526 9 250 0.0 1.6 0.00 0.56 0.56 90 1010.1
20210919063006 9 240 0.0 1.6 0.00 0.56 0.56 90 1009.9
20210919061503 9 153 0.0 3.2 0.03 0.56 0.56 88 1009.8
20210919060002 9 23 0.0 1.6 0.03 0.56 0.56 90 1009.9
20210919054616 9 259 0.0 1.6 0.03 0.56 0.56 90 1009.5
20210919053138 9 273 0.0 3.2 0.10 0.56 0.56 87 1009.4
20210919051622 9 260 0.0 1.6 0.08 0.53 0.53 88 1009.1
20210919050125 10 292 0.0 3.2 0.08 0.53 0.53 86 1009.2